星链-31263 (STARLINK-31263 )

导读 | 星芒AI

STARLINK-31263 是 SpaceX Starlink 项目中的一颗低轨通信卫星,属于第三代星链卫星(v1.5 或 v2 版本)。它于 2023 年发射,部署在约 550 公里的轨道高度,用于提供全球高速互联网服务。该卫星采用先进推进系统和激光通信技术,支持更高速度和更低延迟。作为 Starlink 卫星群的一部分,它有助于扩大覆盖范围,提升网络性能,服务于偏远地区及商业用户。

基本信息
目录编号:
58832
目录名称:
STARLINK-31263
国际标识:
2024-017G
轨道中心:
EARTH
卫星名称:
星链-31263
卫星全名:
星链-31263 (STARLINK-31263 )
卫星状态:
在轨 (已飞行649 天)
发射日期:
2024-01-24 UTC
国别 :
美国 (US)
星等 :
--
轨道信息
数据来源 国际轨道数据
星历时间: 2025-11-02T09:41:11+0800
1天前
查看轨道信息
半长轴: 6853.377km
偏心率: 0.0001183
轨道倾角: 53.162°
近地点辐角 82.008°
升交点赤经 66.694°
平近点角 278.106°
近地点: 474.431km
远地点: 476.053km
周期: 94.106分钟
每日圈数: 15.301918
详细信息
固有亮度:
5
最大亮度:
0.3
卫星平台:
Starlink v2.0 mini
覆盖范围:
全球
运营商:
太空探索技术公司
运营商所在国:
美国
制造商(研发单位):
太空探索技术公司
制造商所在国:
美国
使用方式:
暂无
卫星简介
星链(Starlink)计划是由太空探索技术公司(SpaceX)提出的一个巨型低轨卫星互联网星座项目,计划在2019年至2024年间在太空搭建由约1.2万颗卫星组成的“星链”网络,其中1584颗将部署在地球上空550千米处的近地轨道,并从2020年开始工作。该卫星仍在工作。
2D轨道图
3D轨道图
轨道高度分析图
轨道倾角分析图
轨道综合分析图
查看轨道综合分析图